#timestamp,LO_Frequency,Hit 
1503068415.6,286046997.3,N
1503068435.5,286046999.0,N
1503068455.3,286046999.6,N
1503068475.1,286046999.6,N
1503068495.8,286046997.2,N
1503068515.7,286046998.9,N
1503068535.5,286046997.5,N
1503068555.3,286046997.0,N
1503068575.2,286046996.8,N
1503068595.9,286046996.9,N
1503068615.7,286046997.8,N
1503068635.6,286046997.1,N
1503068655.4,286046997.8,N
1503068675.2,286046997.6,N
1503068695.1,286046997.8,N
1503068696.0,286046997.8,N
1503068715.8,286046997.9,N
1503068735.6,286046996.3,N
1503068755.5,286046996.3,N
1503068775.3,286046997.5,N
1503068795.1,286046995.6,N
1503068815.8,286046996.8,N
1503068835.7,286046999.2,N
1503068855.5,286046995.5,P
1503068875.4,286046995.3,P
1503068895.2,286046999.1,N
1503068915.0,286046999.2,N
1503068915.9,286046999.2,N
1503068935.8,286046999.5,N
1503068955.6,286046997.4,N
1503068975.4,286046997.8,N
1503068995.2,286046995.6,N
1503069015.1,286046995.7,N
1503069016.0,286046995.7,N
1503069035.8,286046995.2,N
1503069055.6,286046995.4,N
1503069075.5,286046995.9,N
1503069095.3,286046994.5,P
1503069115.1,286046996.7,N
1503069135.9,286046996.9,N
1503069155.7,286046997.7,N
1503069175.5,286046997.8,N
1503069195.4,286046995.3,P
1503069215.2,286046999.8,N
1503069235.0,286047001.5,N
1503069235.9,286047001.5,N
1503069255.8,286047001.5,N
1503069275.6,286047002.6,N
1503069295.4,286047002.2,N
1503069315.3,286047000.3,N
1503069335.1,286046999.0,N
1503069336.0,286046999.0,N
1503069355.8,286047000.7,N
1503069375.7,286047001.9,N
1503069395.5,286047002.7,N
1503069415.3,286047002.4,N
1503069435.1,286046999.9,N
1503069455.9,286047001.1,N
1503069475.7,286046998.5,N
1503069495.5,286046999.2,N
1503069515.4,286046998.9,N
1503069535.2,286047000.4,N
1503069555.0,286047001.2,N
1503069555.9,286047001.2,N
1503069575.8,286047000.1,N
1503069595.6,286047002.7,N
1503069615.4,286047000.7,N
1503069635.3,286046998.2,N
1503069655.1,286046998.1,N
1503069656.0,286046998.1,N
1503069675.8,286047000.9,N
1503069695.7,286046999.2,N
1503069715.5,286046996.9,N
1503069735.3,286046998.3,N
1503069755.1,286046998.2,N
1503069775.9,286047001.2,N
1503069795.7,286046996.8,N
1503069815.5,286046996.5,N
1503069835.4,286046998.9,N
1503069855.2,286046996.7,N
1503069875.0,286046997.1,N
1503069875.9,286046997.1,N
1503069895.8,286046997.2,N
1503069915.6,286046997.6,N
1503069935.4,286046997.9,N
1503069955.3,286046997.0,N
1503069975.1,286046998.0,N
1503069976.0,286046998.0,N
1503069995.8,286046995.3,N
1503070015.7,286046997.9,N
1503070035.5,286046995.2,N
1503070055.3,286046997.3,N
1503070075.2,286046996.1,N
1503070095.9,286046996.3,N
1503070115.7,286046993.5,P
1503070135.6,286046997.7,N
1503070155.4,286046997.1,N
1503070175.2,286046999.1,N
1503070195.1,286046998.1,N
1503070196.0,286046998.1,N
1503070215.8,286046997.8,N
1503070235.6,286046997.8,N
1503070255.4,286046999.5,N
1503070275.3,286046997.2,N
1503070295.1,286046997.5,N
1503070315.9,286046995.7,P
1503070335.7,286046996.9,P
1503070355.5,286046997.0,P
1503070375.4,286046997.6,P
1503070395.2,286047000.1,N
1503070415.0,286047000.2,N
1503070415.9,286047000.2,N
1503070435.8,286047001.2,N
1503070455.6,286046999.4,N
1503070475.4,286046999.4,N
1503070495.2,286046996.5,N
1503070515.1,286046999.0,N
1503070516.0,286046999.0,N
1503070535.8,286046998.4,N
1503070555.6,286047002.7,N
1503070575.5,286047004.1,N
1503070595.3,286047002.0,N
1503070615.1,286047002.0,N
1503070635.9,286047002.8,N
1503070655.7,286046999.8,N
1503070675.5,286047000.3,N
1503070695.4,286046998.4,N
1503070715.2,286047000.4,N
1503070735.0,286047002.6,N
1503070735.9,286047002.6,N
1503070755.8,286047002.2,N
1503070775.6,286047000.3,N
1503070795.4,286047000.3,N
1503070815.2,286047002.7,N
1503070835.1,286047002.5,N
1503070836.0,286047002.5,N
1503070855.8,286047000.0,N
1503070875.6,286047000.4,N
1503070895.5,286047000.3,N
1503070915.3,286047000.6,N
1503070935.1,286047000.9,N
1503070955.9,286046999.0,N
1503070975.7,286046999.0,N
1503070995.5,286046998.4,N
1503071015.4,286046998.9,N
1503071035.2,286046999.1,N
1503071055.0,286046997.8,N
1503071055.9,286046997.8,N
1503071075.8,286046999.4,N
1503071095.6,286046997.0,N
1503071115.4,286046998.2,N
1503071135.3,286046998.3,N
1503071155.1,286046996.9,N
1503071156.0,286046996.9,N
1503071175.8,286046995.2,N
1503071195.6,286046995.0,N
1503071215.5,286046995.1,N
1503071235.3,286046995.6,N
1503071255.1,286046995.1,N
1503071275.9,286046997.4,N
1503071295.7,286046999.3,N
1503071315.5,286046997.4,N
1503071335.4,286046995.3,N
1503071355.2,286046997.7,N
1503071375.0,286046995.4,N
1503071375.9,286046995.4,N
1503071395.8,286046993.3,P
1503071415.6,286046996.5,N
1503071435.4,286046996.8,N
1503071455.3,286046997.5,N
1503071475.1,286046999.2,N
1503071476.0,286046999.2,N
1503071495.8,286046997.7,N
1503071515.7,286046996.7,N
1503071535.5,286046999.5,N
1503071555.3,286046997.0,N
1503071575.2,286046999.4,N
1503071595.9,286046999.5,N
1503071615.7,286046994.9,P
1503071635.6,286046996.5,N
1503071655.4,286046998.9,N
1503071675.2,286047000.0,N
1503071695.1,286047000.1,N
1503071696.0,286047000.1,N
1503071715.8,286047001.0,N
1503071735.6,286047001.2,N
1503071755.4,286046998.1,N
1503071775.3,286047001.1,N
1503071795.1,286046998.8,N
1503071815.8,286047000.0,N
1503071835.7,286046998.5,N
1503071855.5,286046996.6,N
1503071875.3,286046999.0,N
1503071895.2,286046998.8,N
1503071915.9,286046996.6,N
1503071935.7,286046997.5,N
1503071955.6,286046997.0,N
1503071975.4,286046997.2,N
1503071995.2,286046996.9,N
